| time (UTC) | temp C | wind direction | speed KPH | gust KPH | rain 1hr cm | rain 24hr cm | rain mn cm | humidity % | barometer mb |
| 20260906201005 | 32 | 62 | 14.5 | 0.0 | 0.00 | 0.00 | 0.00 | 42 | 1008.6 |
| 20260906200505 | 32 | 123 | 14.5 | 0.0 | 0.00 | 0.00 | 0.00 | 41 | 1008.2 |
| 20260906200212 | 33 | 40 | 6.4 | 0.0 | 0.00 | 0.00 | 0.00 | 39 | 1008.6 |
| 20260906195505 | 33 | 145 | 6.4 | 0.0 | 0.00 | 0.00 | 0.00 | 41 | 1008.6 |
| 20260906195005 | 33 | 167 | 14.5 | 0.0 | 0.00 | 0.00 | 0.00 | 40 | 1008.6 |
| 20260906194505 | 33 | 118 | 14.5 | 0.0 | 0.00 | 0.00 | 0.00 | 41 | 1008.9 |
| 20260906194005 | 32 | 130 | 6.4 | 0.0 | 0.00 | 0.00 | 0.00 | 41 | 1008.9 |
| 20260906193505 | 32 | 69 | 6.4 | 0.0 | 0.00 | 0.00 | 0.00 | 42 | 1008.9 |
| 20260906193005 | 32 | 80 | 0.0 | 0.0 | 0.00 | 0.00 | 0.00 | 43 | 1008.9 |
| 20260906192505 | 32 | 148 | 6.4 | 0.0 | 0.00 | 0.00 | 0.00 | 42 | 1008.9 |
| 20260906192005 | 33 | 93 | 6.4 | 0.0 | 0.00 | 0.00 | 0.00 | 41 | 1008.9 |
| 20260906191505 | 33 | 83 | 6.4 | 0.0 | 0.00 | 0.00 | 0.00 | 41 | 1008.9 |
| 20260906191004 | 33 | 141 | 37.0 | 0.0 | 0.00 | 0.00 | 0.00 | 41 | 1009.3 |
| 20260906190713 | 33 | 144 | 20.9 | 0.0 | 0.00 | 0.00 | 0.00 | 43 | 1008.9 |
| 20260906190212 | 33 | 111 | 0.0 | 0.0 | 0.00 | 0.00 | 0.00 | 42 | 1009.3 |
| 20260906185505 | 32 | 179 | 6.4 | 0.0 | 0.00 | 0.00 | 0.00 | 44 | 1009.3 |
| 20260906185005 | 33 | 17 | 0.0 | 0.0 | 0.00 | 0.00 | 0.00 | 43 | 1009.9 |
| 20260906184505 | 31 | 138 | 20.9 | 0.0 | 0.00 | 0.00 | 0.00 | 45 | 1009.6 |
| 20260906184005 | 31 | 174 | 29.0 | 0.0 | 0.00 | 0.00 | 0.00 | 46 | 1009.6 |
| 20260906183505 | 32 | 142 | 6.4 | 0.0 | 0.00 | 0.00 | 0.00 | 47 | 1009.6 |
| 20260906183005 | 31 | 164 | 6.4 | 0.0 | 0.00 | 0.00 | 0.00 | 47 | 1009.9 |
| 20260906182505 | 31 | 92 | 14.5 | 0.0 | 0.00 | 0.00 | 0.00 | 46 | 1009.9 |
| 20260906182005 | 31 | 58 | 0.0 | 0.0 | 0.00 | 0.00 | 0.00 | 48 | 1009.9 |
| 20260906181505 | 31 | 143 | 14.5 | 0.0 | 0.00 | 0.00 | 0.00 | 46 | 1010.3 |
| 20260906181005 | 32 | 124 | 14.5 | 0.0 | 0.00 | 0.00 | 0.00 | 46 | 1010.3 |
| 20260906180505 | 31 | 164 | 20.9 | 0.0 | 0.00 | 0.00 | 0.00 | 48 | 1010.3 |
| 20260906180005 | 31 | 122 | 14.5 | 0.0 | 0.00 | 0.00 | 0.00 | 48 | 1010.3 |
| 20260906175505 | 32 | 261 | 20.9 | 0.0 | 0.00 | 0.00 | 0.00 | 45 | 1010.3 |
| 20260906175005 | 32 | 179 | 0.0 | 0.0 | 0.00 | 0.00 | 0.00 | 47 | 1010.6 |
| 20260906174712 | 31 | 117 | 20.9 | 0.0 | 0.00 | 0.00 | 0.00 | 49 | 1010.6 |
| 20260906174005 | 32 | 183 | 6.4 | 0.0 | 0.00 | 0.00 | 0.00 | 47 | 1010.3 |
| 20260906173505 | 31 | 102 | 6.4 | 0.0 | 0.00 | 0.00 | 0.00 | 48 | 1010.6 |
| 20260906173005 | 32 | 20 | 14.5 | 0.0 | 0.00 | 0.00 | 0.00 | 48 | 1010.6 |
| 20260906172505 | 32 | 128 | 6.4 | 0.0 | 0.00 | 0.00 | 0.00 | 48 | 1011.0 |
| 20260906172005 | 31 | 191 | 14.5 | 0.0 | 0.00 | 0.00 | 0.00 | 49 | 1011.3 |
| 20260906171505 | 32 | 158 | 43.5 | 0.0 | 0.00 | 0.00 | 0.00 | 49 | 1011.0 |
| 20260906171005 | 32 | 137 | 20.9 | 0.0 | 0.00 | 0.00 | 0.00 | 49 | 1011.0 |
| 20260906170505 | 32 | 315 | 6.4 | 0.0 | 0.00 | 0.00 | 0.00 | 48 | 1011.0 |
| 20260906170005 | 31 | 195 | 14.5 | 0.0 | 0.00 | 0.00 | 0.00 | 50 | 1011.3 |
| 20260906165505 | 31 | 169 | 29.0 | 0.0 | 0.00 | 0.00 | 0.00 | 52 | 1011.0 |
| 20260906165005 | 31 | 187 | 20.9 | 0.0 | 0.00 | 0.00 | 0.00 | 52 | 1011.3 |
| 20260906164505 | 31 | 113 | 14.5 | 0.0 | 0.00 | 0.00 | 0.00 | 51 | 1011.3 |
| 20260906164005 | 31 | 135 | 14.5 | 0.0 | 0.00 | 0.00 | 0.00 | 53 | 1011.3 |
| 20260906163504 | 30 | 187 | 29.0 | 0.0 | 0.00 | 0.00 | 0.00 | 54 | 1011.3 |
| 20260906163005 | 30 | 164 | 20.9 | 0.0 | 0.00 | 0.00 | 0.00 | 57 | 1011.3 |
| 20260906162505 | 30 | 162 | 14.5 | 0.0 | 0.00 | 0.00 | 0.00 | 56 | 1011.3 |
| 20260906162005 | 30 | 111 | 6.4 | 0.0 | 0.00 | 0.00 | 0.00 | 57 | 1011.3 |
| 20260906161505 | 30 | 152 | 20.9 | 0.0 | 0.00 | 0.00 | 0.00 | 56 | 1011.6 |
| 20260906161005 | 30 | 108 | 20.9 | 0.0 | 0.00 | 0.00 | 0.00 | 56 | 1011.6 |
| 20260906160505 | 30 | 159 | 37.0 | 0.0 | 0.00 | 0.00 | 0.00 | 56 | 1011.6 |
| 20260906160005 | 30 | 176 | 20.9 | 0.0 | 0.00 | 0.00 | 0.00 | 57 | 1011.6 |
| 20260906155711 | 30 | 77 | 6.4 | 0.0 | 0.00 | 0.00 | 0.00 | 59 | 1011.6 |
| 20260906155213 | 30 | 225 | 29.0 | 0.0 | 0.00 | 0.00 | 0.00 | 61 | 1011.3 |
| 20260906154505 | 30 | 124 | 14.5 | 0.0 | 0.00 | 0.00 | 0.00 | 59 | 1011.6 |
| 20260906154005 | 30 | 41 | 20.9 | 0.0 | 0.00 | 0.00 | 0.00 | 60 | 1011.3 |
| 20260906153505 | 30 | 82 | 14.5 | 0.0 | 0.00 | 0.00 | 0.00 | 60 | 1011.3 |
| 20260906153005 | 30 | 32 | 20.9 | 0.0 | 0.00 | 0.00 | 0.00 | 62 | 1011.3 |
| 20260906152505 | 30 | 51 | 20.9 | 0.0 | 0.00 | 0.00 | 0.00 | 63 | 1011.3 |
| 20260906152005 | 28 | 95 | 14.5 | 0.0 | 0.00 | 0.00 | 0.00 | 67 | 1011.3 |
| 20260906151505 | 28 | 134 | 29.0 | 0.0 | 0.00 | 0.00 | 0.00 | 68 | 1011.3 |
| 20260906151005 | 28 | 83 | 20.9 | 0.0 | 0.00 | 0.00 | 0.00 | 68 | 1011.3 |
| 20260906150505 | 28 | 121 | 20.9 | 0.0 | 0.00 | 0.00 | 0.00 | 69 | 1011.3 |
| 20260906150212 | 28 | 187 | 29.0 | 0.0 | 0.00 | 0.00 | 0.00 | 69 | 1011.3 |
| 20260906145505 | 28 | 146 | 0.0 | 0.0 | 0.00 | 0.00 | 0.00 | 72 | 1011.3 |
| 20260906145005 | 28 | 176 | 20.9 | 0.0 | 0.00 | 0.00 | 0.00 | 72 | 1011.3 |
| 20260906144711 | 27 | 130 | 14.5 | 0.0 | 0.00 | 0.00 | 0.00 | 74 | 1011.3 |
| 20260906144005 | 28 | 52 | 6.4 | 0.0 | 0.00 | 0.00 | 0.00 | 73 | 1011.3 |
| 20260906143505 | 28 | 107 | 6.4 | 0.0 | 0.00 | 0.00 | 0.00 | 73 | 1011.3 |
| 20260906143005 | 28 | 58 | 14.5 | 0.0 | 0.00 | 0.00 | 0.00 | 73 | 1011.3 |
| 20260906142505 | 27 | 179 | 14.5 | 0.0 | 0.00 | 0.00 | 0.00 | 76 | 1011.3 |
| 20260906142212 | 27 | 91 | 20.9 | 0.0 | 0.00 | 0.00 | 0.00 | 75 | 1011.3 |
| 20260906141504 | 27 | 133 | 14.5 | 0.0 | 0.00 | 0.00 | 0.00 | 76 | 1011.3 |
| 20260906141005 | 27 | 155 | 6.4 | 0.0 | 0.00 | 0.00 | 0.00 | 77 | 1011.3 |
| 20260906140505 | 27 | 14 | 6.4 | 0.0 | 0.00 | 0.00 | 0.00 | 78 | 1010.6 |
| 20260906140005 | 27 | 76 | 14.5 | 0.0 | 0.00 | 0.00 | 0.00 | 79 | 1011.0 |
| 20260906135505 | 26 | 112 | 0.0 | 0.0 | 0.00 | 0.00 | 0.00 | 80 | 1011.0 |
| 20260906135005 | 26 | 111 | 0.0 | 0.0 | 0.00 | 0.00 | 0.00 | 82 | 1011.0 |
| 20260906134505 | 26 | 106 | 6.4 | 0.0 | 0.00 | 0.00 | 0.00 | 83 | 1011.0 |
| 20260906134005 | 26 | 42 | 0.0 | 0.0 | 0.00 | 0.00 | 0.00 | 85 | 1011.0 |
| 20260906133505 | 25 | 90 | 0.0 | 0.0 | 0.00 | 0.00 | 0.00 | 86 | 1011.3 |
| 20260906133005 | 25 | 58 | 6.4 | 0.0 | 0.00 | 0.00 | 0.00 | 86 | 1011.0 |
| 20260906132712 | 25 | 111 | 0.0 | 0.0 | 0.00 | 0.00 | 0.00 | 86 | 1010.6 |
| 20260906132005 | 25 | 105 | 6.4 | 0.0 | 0.00 | 0.00 | 0.00 | 87 | 1010.6 |
| 20260906131712 | 25 | 120 | 0.0 | 0.0 | 0.00 | 0.00 | 0.00 | 88 | 1011.0 |
| 20260906131005 | 25 | 95 | 0.0 | 0.0 | 0.00 | 0.00 | 0.00 | 89 | 1011.0 |
| 20260906130505 | 25 | 66 | 0.0 | 0.0 | 0.00 | 0.00 | 0.00 | 90 | 1010.6 |
| 20260906130005 | 25 | 119 | 0.0 | 0.0 | 0.00 | 0.00 | 0.00 | 90 | 1010.6 |
| 20260906125712 | 25 | 100 | 0.0 | 0.0 | 0.00 | 0.00 | 0.00 | 91 | 1010.6 |
| 20260906125005 | 25 | 107 | 0.0 | 0.0 | 0.00 | 0.00 | 0.00 | 91 | 1010.6 |
| 20260906124505 | 24 | 112 | 0.0 | 0.0 | 0.00 | 0.00 | 0.00 | 91 | 1010.3 |
| 20260906124005 | 24 | 129 | 0.0 | 0.0 | 0.00 | 0.00 | 0.00 | 91 | 1010.3 |
| 20260906123505 | 24 | 82 | 0.0 | 0.0 | 0.00 | 0.00 | 0.00 | 92 | 1010.3 |
| 20260906123213 | 24 | 106 | 0.0 | 0.0 | 0.00 | 0.00 | 0.00 | 92 | 1010.3 |
| 20260906122505 | 24 | 106 | 0.0 | 0.0 | 0.00 | 0.00 | 0.00 | 91 | 1009.9 |
| 20260906122005 | 24 | 99 | 0.0 | 0.0 | 0.00 | 0.00 | 0.00 | 92 | 1009.9 |
| 20260906121505 | 24 | 117 | 0.0 | 0.0 | 0.00 | 0.00 | 0.00 | 92 | 1009.6 |
| 20260906121004 | 24 | 122 | 0.0 | 0.0 | 0.00 | 0.00 | 0.00 | 92 | 1009.9 |
| 20260906120505 | 23 | 103 | 0.0 | 0.0 | 0.00 | 0.00 | 0.00 | 92 | 1009.9 |
| 20260906120005 | 23 | 103 | 0.0 | 0.0 | 0.00 | 0.00 | 0.00 | 92 | 1009.9 |
| 20260906115505 | 23 | 119 | 0.0 | 0.0 | 0.00 | 0.00 | 0.00 | 91 | 1009.6 |
| 20260906115213 | 23 | 119 | 0.0 | 0.0 | 0.00 | 0.00 | 0.00 | 91 | 1009.6 |
| 20260906114505 | 24 | 119 | 0.0 | 0.0 | 0.00 | 0.00 | 0.00 | 91 | 1009.6 |
| 20260906114005 | 24 | 119 | 0.0 | 0.0 | 0.00 | 0.00 | 0.00 | 91 | 1009.6 |
| 20260906113505 | 24 | 101 | 0.0 | 0.0 | 0.00 | 0.00 | 0.00 | 91 | 1009.6 |
| 20260906113005 | 24 | 102 | 0.0 | 0.0 | 0.00 | 0.00 | 0.00 | 90 | 1009.6 |
| 20260906112505 | 24 | 100 | 0.0 | 0.0 | 0.00 | 0.00 | 0.00 | 90 | 1009.3 |
| 20260906112005 | 24 | 100 | 0.0 | 0.0 | 0.00 | 0.00 | 0.00 | 90 | 1009.3 |
| 20260906111505 | 24 | 54 | 0.0 | 0.0 | 0.00 | 0.00 | 0.00 | 90 | 1009.6 |
| 20260906111005 | 25 | 116 | 0.0 | 0.0 | 0.00 | 0.00 | 0.00 | 89 | 1009.6 |
| 20260906110505 | 25 | 97 | 0.0 | 0.0 | 0.00 | 0.00 | 0.00 | 89 | 1009.3 |
| 20260906110005 | 25 | 131 | 0.0 | 0.0 | 0.00 | 0.00 | 0.00 | 89 | 1009.3 |
| 20260906105505 | 25 | 115 | 0.0 | 0.0 | 0.00 | 0.00 | 0.00 | 89 | 1009.3 |
| 20260906105005 | 25 | 101 | 0.0 | 0.0 | 0.00 | 0.00 | 0.00 | 89 | 1009.3 |
| 20260906104505 | 25 | 107 | 0.0 | 0.0 | 0.00 | 0.00 | 0.00 | 88 | 1009.6 |
| 20260906104005 | 25 | 110 | 0.0 | 0.0 | 0.00 | 0.00 | 0.00 | 88 | 1008.9 |
| 20260906103505 | 25 | 120 | 0.0 | 0.0 | 0.00 | 0.00 | 0.00 | 88 | 1009.3 |
| 20260906103005 | 25 | 84 | 6.4 | 0.0 | 0.00 | 0.00 | 0.00 | 88 | 1009.3 |
| 20260906102505 | 25 | 96 | 6.4 | 0.0 | 0.00 | 0.00 | 0.00 | 88 | 1008.9 |
| 20260906102005 | 25 | 87 | 0.0 | 0.0 | 0.00 | 0.00 | 0.00 | 88 | 1008.9 |
| 20260906101505 | 25 | 77 | 0.0 | 0.0 | 0.00 | 0.00 | 0.00 | 88 | 1008.6 |
| 20260906101005 | 24 | 111 | 0.0 | 0.0 | 0.00 | 0.00 | 0.00 | 87 | 1008.9 |
| 20260906100505 | 24 | 103 | 0.0 | 0.0 | 0.00 | 0.00 | 0.00 | 87 | 1008.9 |
| 20260906100005 | 24 | 107 | 0.0 | 0.0 | 0.00 | 0.00 | 0.00 | 87 | 1008.9 |
| 20260906095505 | 24 | 96 | 0.0 | 0.0 | 0.00 | 0.00 | 0.00 | 87 | 1008.9 |
| 20260906095006 | 24 | 61 | 6.4 | 0.0 | 0.00 | 0.00 | 0.00 | 87 | 1009.3 |
| 20260906094505 | 24 | 105 | 0.0 | 0.0 | 0.00 | 0.00 | 0.00 | 87 | 1008.9 |
| 20260906094004 | 24 | 102 | 0.0 | 0.0 | 0.00 | 0.00 | 0.00 | 87 | 1008.9 |
| 20260906093505 | 24 | 106 | 0.0 | 0.0 | 0.00 | 0.00 | 0.00 | 87 | 1008.9 |
| 20260906093005 | 24 | 63 | 6.4 | 0.0 | 0.00 | 0.00 | 0.00 | 87 | 1008.9 |
| 20260906092505 | 24 | 91 | 6.4 | 0.0 | 0.00 | 0.00 | 0.00 | 87 | 1008.9 |
| 20260906092005 | 24 | 82 | 0.0 | 0.0 | 0.00 | 0.00 | 0.00 | 87 | 1008.9 |
| 20260906091713 | 24 | 95 | 0.0 | 0.0 | 0.00 | 0.00 | 0.00 | 87 | 1008.9 |
| 20260906091212 | 24 | 115 | 0.0 | 0.0 | 0.00 | 0.00 | 0.00 | 87 | 1008.9 |
| 20260906090713 | 24 | 107 | 0.0 | 0.0 | 0.00 | 0.00 | 0.00 | 87 | 1009.3 |
| 20260906090006 | 24 | 110 | 0.0 | 0.0 | 0.00 | 0.00 | 0.00 | 87 | 1009.3 |
| 20260906085505 | 24 | 111 | 0.0 | 0.0 | 0.00 | 0.00 | 0.00 | 86 | 1009.3 |
| 20260906085005 | 24 | 113 | 0.0 | 0.0 | 0.00 | 0.00 | 0.00 | 86 | 1009.3 |
| 20260906084505 | 23 | 109 | 0.0 | 0.0 | 0.00 | 0.00 | 0.00 | 86 | 1008.9 |
| 20260906084212 | 23 | 118 | 0.0 | 0.0 | 0.00 | 0.00 | 0.00 | 86 | 1008.9 |
| 20260906083505 | 23 | 103 | 0.0 | 0.0 | 0.00 | 0.00 | 0.00 | 87 | 1009.3 |
| 20260906083005 | 23 | 114 | 0.0 | 0.0 | 0.00 | 0.00 | 0.00 | 86 | 1009.3 |
| 20260906082505 | 23 | 118 | 0.0 | 0.0 | 0.00 | 0.00 | 0.00 | 86 | 1009.6 |
| 20260906082005 | 23 | 118 | 0.0 | 0.0 | 0.00 | 0.00 | 0.00 | 86 | 1009.3 |
| 20260906081505 | 23 | 118 | 0.0 | 0.0 | 0.00 | 0.00 | 0.00 | 86 | 1009.6 |
| 20260906081005 | 23 | 118 | 0.0 | 0.0 | 0.00 | 0.00 | 0.00 | 85 | 1009.6 |
| 20260906080505 | 23 | 118 | 0.0 | 0.0 | 0.00 | 0.00 | 0.00 | 85 | 1009.6 |
| 20260906080211 | 23 | 118 | 0.0 | 0.0 | 0.00 | 0.00 | 0.00 | 85 | 1009.6 |
| 20260906075505 | 23 | 118 | 0.0 | 0.0 | 0.00 | 0.00 | 0.00 | 85 | 1009.9 |
| 20260906075005 | 23 | 118 | 0.0 | 0.0 | 0.00 | 0.00 | 0.00 | 86 | 1009.9 |
| 20260906074504 | 23 | 118 | 0.0 | 0.0 | 0.00 | 0.00 | 0.00 | 86 | 1009.9 |
| 20260906074006 | 23 | 118 | 0.0 | 0.0 | 0.00 | 0.00 | 0.00 | 86 | 1009.9 |
| 20260906073505 | 23 | 111 | 0.0 | 0.0 | 0.00 | 0.00 | 0.00 | 85 | 1010.3 |
| 20260906073004 | 23 | 111 | 0.0 | 0.0 | 0.00 | 0.00 | 0.00 | 85 | 1010.3 |
| 20260906072505 | 23 | 111 | 0.0 | 0.0 | 0.00 | 0.00 | 0.00 | 85 | 1010.3 |
| 20260906072005 | 23 | 111 | 0.0 | 0.0 | 0.00 | 0.00 | 0.00 | 85 | 1010.3 |
| 20260906071505 | 23 | 111 | 0.0 | 0.0 | 0.00 | 0.00 | 0.00 | 84 | 1010.3 |
| 20260906071005 | 23 | 111 | 0.0 | 0.0 | 0.00 | 0.00 | 0.00 | 84 | 1010.3 |
| 20260906070505 | 23 | 110 | 0.0 | 0.0 | 0.00 | 0.00 | 0.00 | 84 | 1010.3 |
| 20260906070005 | 23 | 110 | 0.0 | 0.0 | 0.00 | 0.00 | 0.00 | 83 | 1010.6 |
| 20260906065505 | 23 | 110 | 0.0 | 0.0 | 0.00 | 0.00 | 0.00 | 83 | 1010.6 |
| 20260906065005 | 24 | 110 | 0.0 | 0.0 | 0.00 | 0.00 | 0.00 | 83 | 1010.6 |
| 20260906064505 | 23 | 118 | 0.0 | 0.0 | 0.00 | 0.00 | 0.00 | 83 | 1011.0 |
| 20260906064006 | 23 | 144 | 0.0 | 0.0 | 0.00 | 0.00 | 0.00 | 84 | 1010.6 |
| 20260906063504 | 23 | 141 | 0.0 | 0.0 | 0.00 | 0.00 | 0.00 | 84 | 1011.0 |
| 20260906063005 | 23 | 117 | 0.0 | 0.0 | 0.00 | 0.00 | 0.00 | 84 | 1011.0 |
| 20260906062505 | 23 | 118 | 0.0 | 0.0 | 0.00 | 0.00 | 0.00 | 84 | 1010.6 |
| 20260906062005 | 23 | 116 | 0.0 | 0.0 | 0.00 | 0.00 | 0.00 | 84 | 1011.0 |
| 20260906061712 | 23 | 118 | 0.0 | 0.0 | 0.00 | 0.00 | 0.00 | 84 | 1011.0 |
| 20260906061005 | 23 | 169 | 6.4 | 0.0 | 0.00 | 0.00 | 0.00 | 84 | 1010.6 |
| 20260906060504 | 23 | 111 | 0.0 | 0.0 | 0.00 | 0.00 | 0.00 | 84 | 1010.6 |
| 20260906060005 | 23 | 119 | 0.0 | 0.0 | 0.00 | 0.00 | 0.00 | 84 | 1011.0 |
| 20260906055712 | 23 | 136 | 0.0 | 0.0 | 0.00 | 0.00 | 0.00 | 84 | 1011.0 |
| 20260906055213 | 23 | 135 | 0.0 | 0.0 | 0.00 | 0.00 | 0.00 | 83 | 1010.6 |
| 20260906054505 | 23 | 136 | 0.0 | 0.0 | 0.00 | 0.00 | 0.00 | 83 | 1011.0 |
| 20260906054005 | 23 | 116 | 0.0 | 0.0 | 0.00 | 0.00 | 0.00 | 83 | 1011.0 |
| 20260906053505 | 23 | 122 | 0.0 | 0.0 | 0.00 | 0.00 | 0.00 | 84 | 1011.0 |
| 20260906053005 | 23 | 122 | 0.0 | 0.0 | 0.00 | 0.00 | 0.00 | 83 | 1011.0 |
| 20260906052505 | 23 | 126 | 0.0 | 0.0 | 0.00 | 0.00 | 0.00 | 83 | 1011.0 |
| 20260906052005 | 23 | 123 | 0.0 | 0.0 | 0.00 | 0.00 | 0.00 | 83 | 1011.3 |
| 20260906051505 | 23 | 115 | 0.0 | 0.0 | 0.00 | 0.00 | 0.00 | 83 | 1011.6 |
| 20260906051005 | 23 | 117 | 0.0 | 0.0 | 0.00 | 0.00 | 0.00 | 83 | 1011.3 |
| 20260906050711 | 23 | 137 | 0.0 | 0.0 | 0.00 | 0.00 | 0.00 | 83 | 1011.3 |
| 20260906045505 | 24 | 114 | 0.0 | 0.0 | 0.00 | 0.00 | 0.00 | 82 | 1011.6 |
| 20260906045005 | 23 | 95 | 0.0 | 0.0 | 0.00 | 0.00 | 0.00 | 82 | 1011.6 |
| 20260906044505 | 23 | 147 | 0.0 | 0.0 | 0.00 | 0.00 | 0.00 | 82 | 1011.3 |
| 20260906044004 | 23 | 111 | 0.0 | 0.0 | 0.00 | 0.00 | 0.00 | 81 | 1011.0 |
| 20260906043505 | 23 | 120 | 0.0 | 0.0 | 0.00 | 0.00 | 0.00 | 81 | 1011.0 |
| 20260906043005 | 23 | 114 | 0.0 | 0.0 | 0.00 | 0.00 | 0.00 | 82 | 1011.3 |
| 20260906042505 | 24 | 118 | 0.0 | 0.0 | 0.00 | 0.00 | 0.00 | 82 | 1011.0 |
| 20260906042005 | 24 | 110 | 0.0 | 0.0 | 0.00 | 0.00 | 0.00 | 82 | 1011.3 |
| 20260906041505 | 24 | 135 | 0.0 | 0.0 | 0.00 | 0.00 | 0.00 | 81 | 1011.3 |
| 20260906041005 | 24 | 92 | 6.4 | 0.0 | 0.00 | 0.00 | 0.00 | 81 | 1011.3 |
| 20260906040505 | 24 | 69 | 14.5 | 0.0 | 0.00 | 0.00 | 0.00 | 80 | 1011.3 |
| 20260906040005 | 25 | 111 | 0.0 | 0.0 | 0.00 | 0.00 | 0.00 | 79 | 1011.0 |
| 20260906035505 | 25 | 90 | 0.0 | 0.0 | 0.00 | 0.00 | 0.00 | 77 | 1011.0 |
| 20260906035005 | 25 | 102 | 0.0 | 0.0 | 0.00 | 0.00 | 0.00 | 76 | 1011.0 |
| 20260906034711 | 25 | 129 | 0.0 | 0.0 | 0.00 | 0.00 | 0.00 | 75 | 1011.0 |
| 20260906034005 | 25 | 85 | 0.0 | 0.0 | 0.00 | 0.00 | 0.00 | 74 | 1010.6 |
| 20260906033713 | 25 | 94 | 6.4 | 0.0 | 0.00 | 0.00 | 0.00 | 73 | 1011.0 |
| 20260906033212 | 24 | 100 | 0.0 | 0.0 | 0.00 | 0.00 | 0.00 | 73 | 1011.3 |
| 20260906032505 | 24 | 142 | 0.0 | 0.0 | 0.00 | 0.00 | 0.00 | 73 | 1011.0 |
| 20260906032004 | 24 | 113 | 0.0 | 0.0 | 0.00 | 0.00 | 0.00 | 72 | 1011.0 |
| 20260906031505 | 24 | 117 | 6.4 | 0.0 | 0.00 | 0.00 | 0.00 | 72 | 1011.0 |
| 20260906031212 | 24 | 114 | 0.0 | 0.0 | 0.00 | 0.00 | 0.00 | 71 | 1011.3 |
| 20260906030505 | 24 | 116 | 6.4 | 0.0 | 0.00 | 0.00 | 0.00 | 72 | 1011.3 |
| 20260906030005 | 24 | 160 | 6.4 | 0.0 | 0.00 | 0.00 | 0.00 | 72 | 1011.3 |
| 20260906025505 | 24 | 140 | 6.4 | 0.0 | 0.00 | 0.00 | 0.00 | 72 | 1011.3 |
| 20260906025005 | 24 | 129 | 6.4 | 0.0 | 0.00 | 0.00 | 0.00 | 72 | 1011.3 |
| 20260906024505 | 24 | 204 | 29.0 | 0.0 | 0.00 | 0.00 | 0.00 | 74 | 1011.6 |
| 20260906024213 | 24 | 114 | 20.9 | 0.0 | 0.00 | 0.00 | 0.00 | 73 | 1011.6 |
| 20260906023504 | 25 | 149 | 20.9 | 0.0 | 0.00 | 0.00 | 0.00 | 72 | 1011.3 |
| 20260906023212 | 25 | 184 | 14.5 | 0.0 | 0.00 | 0.00 | 0.00 | 68 | 1011.3 |
| 20260906022505 | 25 | 119 | 14.5 | 0.0 | 0.00 | 0.00 | 0.00 | 67 | 1011.3 |
| 20260906022005 | 25 | 187 | 14.5 | 0.0 | 0.00 | 0.00 | 0.00 | 67 | 1011.6 |
| 20260906021504 | 26 | 207 | 43.5 | 0.0 | 0.00 | 0.00 | 0.00 | 67 | 1011.3 |
| 20260906021005 | 27 | 198 | 29.0 | 0.0 | 0.00 | 0.00 | 0.00 | 65 | 1011.3 |
| 20260906020505 | 28 | 234 | 37.0 | 0.0 | 0.00 | 0.00 | 0.00 | 65 | 1011.3 |
| 20260906020005 | 28 | 19 | 6.4 | 0.0 | 0.00 | 0.00 | 0.00 | 65 | 1010.6 |
| 20260906015505 | 28 | 98 | 6.4 | 0.0 | 0.00 | 0.00 | 0.00 | 65 | 1010.6 |
| 20260906015005 | 28 | 100 | 20.9 | 0.0 | 0.00 | 0.00 | 0.00 | 65 | 1010.3 |
| 20260906014712 | 28 | 42 | 20.9 | 0.0 | 0.00 | 0.00 | 0.00 | 65 | 1009.9 |
| 20260906014213 | 28 | 138 | 14.5 | 0.0 | 0.00 | 0.00 | 0.00 | 64 | 1009.6 |
| 20260906013505 | 28 | 139 | 6.4 | 0.0 | 0.00 | 0.00 | 0.00 | 64 | 1009.6 |
| 20260906013005 | 28 | 303 | 14.5 | 0.0 | 0.00 | 0.00 | 0.00 | 63 | 1009.3 |
| 20260906012505 | 28 | 166 | 6.4 | 0.0 | 0.00 | 0.00 | 0.00 | 63 | 1009.3 |
| 20260906012005 | 28 | 77 | 29.0 | 0.0 | 0.00 | 0.00 | 0.00 | 62 | 1009.3 |
| 20260906011712 | 28 | 9 | 14.5 | 0.0 | 0.00 | 0.00 | 0.00 | 61 | 1009.3 |
| 20260906011213 | 28 | 145 | 20.9 | 0.0 | 0.00 | 0.00 | 0.00 | 61 | 1008.9 |
| 20260906010712 | 29 | 103 | 29.0 | 0.0 | 0.00 | 0.00 | 0.00 | 61 | 1008.9 |
| 20260906010005 | 29 | 75 | 6.4 | 0.0 | 0.00 | 0.00 | 0.00 | 60 | 1008.9 |
| 20260906005505 | 29 | 94 | 14.5 | 0.0 | 0.00 | 0.00 | 0.00 | 59 | 1008.6 |
| 20260906005005 | 29 | 100 | 14.5 | 0.0 | 0.00 | 0.00 | 0.00 | 58 | 1008.6 |
| 20260906004505 | 30 | 35 | 6.4 | 0.0 | 0.00 | 0.00 | 0.00 | 58 | 1008.6 |
| 20260906004005 | 30 | 116 | 51.5 | 0.0 | 0.00 | 0.00 | 0.00 | 57 | 1008.6 |
| 20260906003505 | 30 | 40 | 14.5 | 0.0 | 0.00 | 0.00 | 0.00 | 56 | 1008.2 |
| 20260906003004 | 30 | 74 | 29.0 | 0.0 | 0.00 | 0.00 | 0.00 | 56 | 1008.2 |
| 20260906002712 | 30 | 6 | 20.9 | 0.0 | 0.00 | 0.00 | 0.00 | 55 | 1008.2 |
| 20260906002005 | 30 | 114 | 20.9 | 0.0 | 0.00 | 0.00 | 0.00 | 54 | 1007.9 |
| 20260906001504 | 30 | 139 | 14.5 | 0.0 | 0.00 | 0.00 | 0.00 | 53 | 1007.9 |
| 20260906001005 | 30 | 357 | 43.5 | 0.0 | 0.00 | 0.00 | 0.00 | 53 | 1007.9 |
| 20260906000505 | 30 | 79 | 29.0 | 0.0 | 0.00 | 0.00 | 0.00 | 52 | 1007.9 |
| 20260906000005 | 31 | 164 | 14.5 | 0.0 | 0.00 | 0.00 | 0.00 | 51 | 1007.6 |
| 20260905235505 | 31 | 86 | 14.5 | 0.0 | 0.00 | 0.00 | 0.00 | 50 | 1007.2 |
| 20260905235005 | 31 | 116 | 6.4 | 0.0 | 0.00 | 0.00 | 0.00 | 50 | 1006.9 |
| 20260905234505 | 31 | 84 | 37.0 | 0.0 | 0.00 | 0.00 | 0.00 | 50 | 1006.9 |
| 20260905234005 | 31 | 29 | 37.0 | 0.0 | 0.00 | 0.00 | 0.00 | 49 | 1006.9 |
| 20260905233505 | 31 | 50 | 14.5 | 0.0 | 0.00 | 0.00 | 0.00 | 49 | 1006.9 |
| 20260905233004 | 31 | 102 | 20.9 | 0.0 | 0.00 | 0.00 | 0.00 | 48 | 1006.9 |
| 20260905232505 | 31 | 70 | 29.0 | 0.0 | 0.00 | 0.00 | 0.00 | 48 | 1006.9 |
| 20260905232005 | 31 | 39 | 37.0 | 0.0 | 0.00 | 0.00 | 0.00 | 47 | 1006.9 |
| 20260905231505 | 32 | 5 | 20.9 | 0.0 | 0.00 | 0.00 | 0.00 | 46 | 1006.9 |
| 20260905231005 | 32 | 120 | 20.9 | 0.0 | 0.00 | 0.00 | 0.00 | 44 | 1006.9 |
| 20260905230505 | 32 | 44 | 37.0 | 0.0 | 0.00 | 0.00 | 0.00 | 44 | 1006.9 |
| 20260905230212 | 32 | 156 | 14.5 | 0.0 | 0.00 | 0.00 | 0.00 | 44 | 1006.5 |
| 20260905225505 | 32 | 41 | 37.0 | 0.0 | 0.00 | 0.00 | 0.00 | 44 | 1006.5 |
| 20260905225005 | 32 | 62 | 37.0 | 0.0 | 0.00 | 0.00 | 0.00 | 43 | 1006.2 |
| 20260905224504 | 32 | 356 | 14.5 | 0.0 | 0.00 | 0.00 | 0.00 | 43 | 1006.5 |
| 20260905224005 | 32 | 100 | 43.5 | 0.0 | 0.00 | 0.00 | 0.00 | 43 | 1006.5 |
| 20260905223505 | 32 | 83 | 29.0 | 0.0 | 0.00 | 0.00 | 0.00 | 42 | 1006.5 |
| 20260905223005 | 32 | 2 | 37.0 | 0.0 | 0.00 | 0.00 | 0.00 | 41 | 1006.2 |
| 20260905222505 | 33 | 62 | 20.9 | 0.0 | 0.00 | 0.00 | 0.00 | 41 | 1006.2 |
| 20260905222005 | 33 | 68 | 14.5 | 0.0 | 0.00 | 0.00 | 0.00 | 40 | 1006.2 |
| 20260905221505 | 33 | 48 | 20.9 | 0.0 | 0.00 | 0.00 | 0.00 | 40 | 1006.2 |
| 20260905221005 | 32 | 155 | 6.4 | 0.0 | 0.00 | 0.00 | 0.00 | 41 | 1006.2 |
| 20260905220504 | 33 | 44 | 20.9 | 0.0 | 0.00 | 0.00 | 0.00 | 39 | 1006.2 |
| 20260905220005 | 33 | 30 | 29.0 | 0.0 | 0.00 | 0.00 | 0.00 | 38 | 1006.2 |
| 20260905215713 | 33 | 100 | 29.0 | 0.0 | 0.00 | 0.00 | 0.00 | 37 | 1006.5 |
| 20260905215005 | 33 | 66 | 6.4 | 0.0 | 0.00 | 0.00 | 0.00 | 37 | 1006.2 |
| 20260905214505 | 33 | 90 | 20.9 | 0.0 | 0.00 | 0.00 | 0.00 | 36 | 1006.5 |
| 20260905214005 | 33 | 47 | 43.5 | 0.0 | 0.00 | 0.00 | 0.00 | 36 | 1006.5 |
| 20260905213505 | 33 | 141 | 6.4 | 0.0 | 0.00 | 0.00 | 0.00 | 36 | 1006.5 |
| 20260905213006 | 33 | 116 | 14.5 | 0.0 | 0.00 | 0.00 | 0.00 | 36 | 1006.9 |
| 20260905212712 | 33 | 125 | 14.5 | 0.0 | 0.00 | 0.00 | 0.00 | 37 | 1006.5 |
| 20260905212211 | 33 | 108 | 20.9 | 0.0 | 0.00 | 0.00 | 0.00 | 38 | 1006.5 |
| 20260905211505 | 33 | 163 | 20.9 | 0.0 | 0.00 | 0.00 | 0.00 | 38 | 1006.9 |
| 20260905211005 | 32 | 129 | 14.5 | 0.0 | 0.00 | 0.00 | 0.00 | 39 | 1006.9 |
| 20260905210505 | 33 | 104 | 14.5 | 0.0 | 0.00 | 0.00 | 0.00 | 39 | 1006.9 |
| 20260905210211 | 33 | 62 | 14.5 | 0.0 | 0.00 | 0.00 | 0.00 | 38 | 1006.9 |
| 20260905205505 | 33 | 43 | 20.9 | 0.0 | 0.00 | 0.00 | 0.00 | 38 | 1007.2 |
| 20260905205005 | 34 | 99 | 14.5 | 0.0 | 0.00 | 0.00 | 0.00 | 36 | 1007.2 |
| 20260905204712 | 33 | 8 | 29.0 | 0.0 | 0.00 | 0.00 | 0.00 | 37 | 1007.2 |
| 20260905204211 | 33 | 154 | 14.5 | 0.0 | 0.00 | 0.00 | 0.00 | 37 | 1007.6 |
| 20260905203505 | 33 | 78 | 20.9 | 0.0 | 0.00 | 0.00 | 0.00 | 37 | 1007.6 |
| 20260905203213 | 33 | 131 | 20.9 | 0.0 | 0.00 | 0.00 | 0.00 | 38 | 1007.2 |
| 20260905202505 | 33 | 136 | 29.0 | 0.0 | 0.00 | 0.00 | 0.00 | 37 | 1007.2 |
| 20260905202005 | 33 | 58 | 20.9 | 0.0 | 0.00 | 0.00 | 0.00 | 36 | 1007.6 |
| 20260905201505 | 33 | 83 | 6.4 | 0.0 | 0.00 | 0.00 | 0.00 | 38 | 1007.9 |